FW2617 Weather Reports


time (UTC)temp
F
wind
direction
speed
knots
gust
knots
rain 1hr
in
rain 24hr
in
rain mn
in
humidity
%
barometer
mb
20260509173604 86 320 4.3 12.2 0.00 0.00 0.00 53 1007.6
20260509172704 87 357 3.5 8.7 0.00 0.00 0.00 55 1007.8
20260509171804 86 360 3.5 7.8 0.00 0.00 0.00 57 1007.9
20260509170904 85 330 3.5 7.8 0.00 0.00 0.00 56 1007.9
20260509170004 85 319 3.5 7.8 0.00 0.00 0.00 55 1007.9
20260509165425 84 329 3.5 7.8 0.00 0.00 0.00 58 1007.9
20260509164525 84 348 3.5 7.8 0.00 0.00 0.00 58 1008.1
20260509163604 84 335 3.5 8.7 0.00 0.00 0.00 58 1008.2
20260509162704 83 344 3.5 7.8 0.00 0.00 0.00 61 1008.2
20260509161804 82 331 2.6 5.2 0.00 0.00 0.00 62 1008.1
20260509160903 81 321 2.6 6.1 0.00 0.00 0.00 64 1008.2
20260509160004 80 301 1.7 5.2 0.00 0.00 0.00 65 1008.2
20260509155403 80 321 2.6 5.2 0.00 0.00 0.00 66 1008.2
20260509154504 79 325 4.3 8.7 0.00 0.00 0.00 67 1008.2
20260509153604 78 357 4.3 8.7 0.00 0.00 0.00 70 1008.0
20260509152704 78 3 5.2 9.6 0.00 0.00 0.00 71 1007.9
20260509151804 77 6 5.2 9.6 0.00 0.00 0.00 72 1007.9
20260509150903 76 4 4.3 9.6 0.00 0.00 0.00 73 1007.8
20260509150004 76 15 5.2 9.6 0.00 0.00 0.00 74 1007.9
20260509145404 75 2 4.3 9.6 0.00 0.00 0.00 75 1008.0
20260509144503 75 344 3.5 8.7 0.00 0.00 0.00 78 1008.1
20260509143625 74 341 3.5 7.8 0.00 0.00 0.00 79 1008.2
20260509142704 74 329 3.5 8.7 0.00 0.00 0.00 80 1008.2
20260509141804 74 327 5.2 8.7 0.00 0.00 0.00 80 1008.2
20260509140904 73 331 5.2 9.6 0.00 0.00 0.00 81 1008.1
20260509140005 73 324 4.3 9.6 0.00 0.00 0.00 82 1007.9
20260509135404 72 328 6.1 9.6 0.00 0.00 0.00 82 1007.9
20260509134504 72 332 5.2 9.6 0.00 0.00 0.00 83 1007.9
20260509133604 71 332 4.3 9.6 0.00 0.00 0.00 84 1007.9
20260509132704 71 333 6.1 12.2 0.00 0.00 0.00 84 1007.8
20260509131804 71 332 6.1 11.3 0.00 0.00 0.00 85 1007.7
20260509130904 70 336 5.2 10.4 0.00 0.00 0.00 86 1007.6
20260509130004 69 338 3.5 7.0 0.00 0.00 0.00 87 1007.5
20260509125404 68 330 3.5 7.8 0.00 0.00 0.00 87 1007.5
20260509124504 68 329 3.5 7.0 0.00 0.00 0.00 88 1007.4
20260509123604 67 323 2.6 4.3 0.00 0.00 0.00 89 1007.5
20260509122703 67 322 0.0 4.3 0.00 0.00 0.00 89 1007.5
20260509121804 68 0 0.0 0.0 0.00 0.00 0.00 90 1007.5
20260509120904 68 0 0.0 0.0 0.00 0.00 0.00 91 1007.4
20260509120004 69 304 0.0 0.9 0.00 0.00 0.00 91 1007.6
20260509115404 69 304 0.0 1.7 0.00 0.00 0.00 91 1007.5
20260509114504 70 304 0.0 0.9 0.00 0.00 0.00 91 1007.6
20260509113625 70 304 0.0 1.7 0.00 0.00 0.00 91 1007.7
20260509112704 70 305 0.9 3.5 0.00 0.00 0.00 92 1007.7
20260509111804 70 320 1.7 3.5 0.00 0.00 0.00 92 1007.7
20260509110925 70 329 2.6 5.2 0.00 0.00 0.00 92 1007.7
20260509110004 70 322 3.5 7.0 0.00 0.00 0.00 92 1007.4
20260509105424 70 320 3.5 7.0 0.00 0.00 0.00 92 1007.5
20260509104504 70 325 4.3 9.6 0.00 0.00 0.00 92 1007.4
20260509103604 70 328 6.1 11.3 0.00 0.00 0.00 92 1007.0
20260509102704 70 292 1.7 9.6 0.00 0.00 0.00 92 1006.8
20260509101804 70 176 4.3 8.7 0.00 0.00 0.00 92 1005.7
20260509100904 70 180 5.2 12.2 0.00 0.00 0.00 92 1005.2
20260509100004 70 181 4.3 13.0 0.00 0.00 0.00 93 1005.2
20260509095404 70 175 5.2 13.0 0.00 0.00 0.00 93 1005.0
20260509094504 69 165 6.1 14.8 0.00 0.00 0.00 93 1004.6
20260509093625 69 168 5.2 12.2 0.00 0.00 0.00 93 1004.8
20260509092704 69 170 4.3 9.6 0.00 0.00 0.00 92 1005.1
20260509091804 69 170 6.1 13.0 0.00 0.00 0.00 92 1005.3
20260509090925 69 169 5.2 13.0 0.00 0.00 0.00 92 1005.5
20260509090025 69 168 4.3 8.7 0.00 0.00 0.00 92 1005.6
20260509085404 69 167 3.5 7.8 0.00 0.00 0.00 92 1005.9
20260509084504 69 167 3.5 7.8 0.00 0.00 0.00 92 1006.2
20260509083604 69 167 4.3 8.7 0.00 0.00 0.00 92 1006.3
20260509082725 69 170 3.5 8.7 0.00 0.00 0.00 92 1006.8
20260509081803 69 168 4.3 10.4 0.00 0.00 0.00 92 1007.0
20260509080904 69 167 2.6 6.1 0.00 0.00 0.00 91 1007.6
20260509080003 70 178 2.6 7.0 0.00 0.00 0.00 91 1008.1
20260509075403 70 193 2.6 7.0 0.00 0.00 0.00 91 1008.5
20260509074504 70 257 3.5 7.0 0.00 0.00 0.00 91 1008.8
20260509073604 70 285 4.3 9.6 0.00 0.00 0.00 91 1009.8
20260509072725 70 288 2.6 6.1 0.00 0.00 0.00 91 1009.5
20260509071803 69 319 2.6 6.1 0.00 0.00 0.00 91 1009.3
20260509070904 69 317 1.7 4.3 0.00 0.00 0.00 91 1009.4
20260509070004 69 309 1.7 2.6 0.00 0.00 0.00 91 1009.3
20260509065404 69 323 1.7 4.3 0.00 0.00 0.00 91 1009.3
20260509064525 69 344 1.7 4.3 0.00 0.00 0.00 91 1009.6
20260509063604 69 345 0.0 2.6 0.00 0.00 0.00 90 1009.1
20260509062704 69 350 1.7 4.3 0.00 0.00 0.00 90 1009.0
20260509061804 69 185 0.9 3.5 0.00 0.00 0.00 90 1008.9
20260509060903 69 170 0.9 3.5 0.00 0.00 0.00 90 1008.7
20260509060004 69 170 0.9 3.5 0.00 0.00 0.00 90 1008.4
20260509055404 70 170 0.9 1.7 0.00 0.00 0.00 90 1008.1
20260509054504 70 170 0.9 1.7 0.00 0.00 0.00 90 1008.1
20260509053604 70 170 0.9 3.5 0.00 0.00 0.00 90 1008.1
20260509052725 70 171 1.7 4.3 0.00 0.00 0.00 90 1008.3
20260509051804 70 164 0.9 3.5 0.00 0.00 0.00 90 1008.0
20260509050925 70 166 0.9 3.5 0.00 0.00 0.00 89 1007.9
20260509050025 70 140 0.0 1.7 0.00 0.00 0.00 89 1008.3
20260509045403 71 0 0.0 0.0 0.00 0.00 0.00 88 1008.4
20260509044504 71 0 0.0 0.0 0.00 0.00 0.00 88 1008.5
20260509043625 71 148 0.0 2.6 0.00 0.00 0.00 88 1008.4
20260509042704 71 159 1.7 4.3 0.00 0.00 0.00 88 1008.1
20260509041804 71 167 2.6 5.2 0.00 0.00 0.00 88 1007.6
20260509040925 71 165 2.6 4.3 0.00 0.00 0.00 88 1007.6
20260509040025 72 164 1.7 5.2 0.00 0.00 0.00 88 1007.9
20260509035404 72 163 1.7 4.3 0.00 0.00 0.00 88 1007.8
20260509034525 72 162 0.9 5.2 0.00 0.00 0.00 87 1007.8
20260509033604 72 168 1.7 5.2 0.00 0.00 0.00 87 1007.5
20260509032704 72 169 2.6 6.1 0.00 0.00 0.00 86 1007.4
20260509031803 72 167 2.6 6.1 0.00 0.00 0.00 86 1007.3
20260509030904 73 166 3.5 7.0 0.00 0.00 0.00 86 1007.1
20260509030004 73 168 2.6 7.0 0.00 0.00 0.00 85 1007.1
20260509025404 73 167 2.6 5.2 0.00 0.00 0.00 85 1007.2
20260509024504 73 166 0.9 4.3 0.00 0.00 0.00 85 1007.2
20260509023625 73 173 1.7 5.2 0.00 0.00 0.00 84 1007.0
20260509022704 73 194 0.9 4.3 0.00 0.00 0.00 84 1006.9
20260509021804 73 175 0.9 3.5 0.00 0.00 0.00 84 1006.8
20260509020904 74 166 1.7 4.3 0.00 0.00 0.00 84 1006.8
20260509020004 74 164 1.7 5.2 0.00 0.00 0.00 84 1006.7
20260509015425 74 167 1.7 5.2 0.00 0.00 0.00 83 1006.5
20260509014504 74 163 0.9 4.3 0.00 0.00 0.00 83 1006.5
20260509013603 74 169 1.7 3.5 0.00 0.00 0.00 83 1006.4
20260509012704 74 163 2.6 5.2 0.00 0.00 0.00 83 1006.4
20260509011825 74 165 1.7 6.1 0.00 0.00 0.00 82 1006.3
20260509010904 74 161 0.9 3.5 0.00 0.00 0.00 82 1006.2
20260509010004 74 167 2.6 6.1 0.00 0.00 0.00 82 1006.1
20260509005425 74 163 2.6 6.1 0.00 0.00 0.00 81 1005.9
20260509004504 74 167 1.7 4.3 0.00 0.00 0.00 81 1005.8
20260509003604 75 164 2.6 6.1 0.00 0.00 0.00 80 1006.0
20260509002704 75 183 2.6 6.1 0.00 0.00 0.00 80 1006.1
20260509001803 76 187 1.7 5.2 0.00 0.00 0.00 79 1006.1
20260509000904 76 175 2.6 7.0 0.00 0.00 0.00 78 1006.0
20260509000004 76 165 2.6 7.0 0.00 0.00 0.00 78 1005.9
20260508235424 76 166 2.6 6.1 0.00 0.00 0.00 78 1005.9
20260508234504 76 162 2.6 7.0 0.00 0.00 0.00 78 1005.8
20260508233625 76 163 2.6 7.0 0.00 0.00 0.00 78 1005.7
20260508232704 76 180 4.3 8.7 0.00 0.00 0.00 78 1005.9
20260508231803 76 169 4.3 9.6 0.00 0.00 0.00 77 1005.9
20260508230904 76 182 3.5 9.6 0.00 0.00 0.00 77 1005.9
20260508230004 76 169 2.6 7.0 0.00 0.00 0.00 77 1005.8
20260508225425 76 162 3.5 7.8 0.00 0.00 0.00 78 1006.0
20260508224504 76 166 3.5 7.8 0.00 0.00 0.00 78 1006.1
20260508223625 75 166 3.5 10.4 0.00 0.00 0.00 77 1006.2
20260508222703 75 161 4.3 8.7 0.00 0.00 0.00 77 1006.3
20260508221804 75 168 3.5 7.8 0.00 0.00 0.00 77 1006.3
20260508220904 75 164 1.7 5.2 0.00 0.00 0.00 77 1006.5
20260508220004 75 156 1.7 5.2 0.00 0.00 0.00 77 1006.8
20260508215424 75 145 1.7 5.2 0.00 0.00 0.00 77 1006.9
20260508214503 74 159 2.6 7.0 0.00 0.00 0.00 77 1006.9
20260508213603 74 167 2.6 5.2 0.00 0.00 0.00 76 1007.1
20260508212704 75 174 1.7 6.1 0.00 0.00 0.00 75 1007.2
20260508211804 75 169 2.6 9.6 0.00 0.00 0.00 75 1007.3
20260508210903 75 152 3.5 9.6 0.00 0.00 0.00 75 1007.0
20260508210004 73 149 7.0 12.2 0.00 0.00 0.00 77 1007.0
20260508205404 73 144 6.1 13.0 0.00 0.00 0.00 77 1006.8
20260508204504 72 144 4.3 11.3 0.00 0.00 0.00 77 1007.2
20260508203604 71 150 3.5 10.4 0.00 0.00 0.00 79 1007.4
20260508202724 70 155 2.6 7.8 0.00 0.00 0.00 78 1007.7
20260508201804 70 163 2.6 6.1 0.00 0.00 0.00 78 1008.4
20260508200903 70 172 2.6 6.1 0.00 0.00 0.00 78 1008.7
20260508200004 71 205 2.6 7.0 0.00 0.00 0.00 77 1009.3
20260508195403 71 183 2.6 7.8 0.00 0.00 0.00 77 1009.3
20260508194524 71 192 1.7 7.0 0.00 0.00 0.00 76 1008.9
20260508193603 72 204 2.6 6.1 0.00 0.00 0.00 74 1009.2
20260508192703 72 165 2.6 5.2 0.00 0.00 0.00 74 1008.8
20260508191804 72 159 3.5 7.8 0.00 0.00 0.00 74 1008.9
20260508190903 72 172 4.3 8.7 0.00 0.00 0.00 74 1009.1
20260508190003 72 171 3.5 8.7 0.00 0.00 0.00 74 1009.0
20260508185425 71 177 2.6 8.7 0.00 0.00 0.00 75 1009.2
20260508184504 70 164 2.6 7.0 0.00 0.00 0.00 75 1009.5
20260508183603 70 154 2.6 9.6 0.00 0.00 0.00 74 1009.6
20260508182725 70 160 3.5 7.8 0.00 0.00 0.00 74 1009.8
20260508181804 70 161 3.5 7.8 0.00 0.00 0.00 74 1010.0
20260508180904 70 162 3.5 9.6 0.00 0.00 0.00 74 1010.2
20260508180025 70 163 3.5 11.3 0.00 0.00 0.00 73 1010.3
20260508175403 71 158 2.6 11.3 0.00 0.00 0.00 71 1010.3
20260508174524 72 153 3.5 8.7 0.00 0.00 0.00 70 1010.2